Home   Weather   Constanța   Past weeks

Flag for Romania Past Weather in Constanța, Romania — Yesterday and Last 2 Weeks

Now
43 °F

Partly sunny.


Feels Like: 43 °F
Forecast: 42 / 55 °F
Wind: 2 mph from Southeast

Location: Constanta

Current Time: Feb 28, 2017 at 6:53:04 pm

Latest Report: Feb 28, 2017 at 5:00 pm


Visibility: 6 mi

Pressure: 29.98 "Hg

Humidity: 94%

Dew Point: 41 °F

Location of ConstanțaLocation

Past Weather in Constanța — Graph

°F

Constanța Temperature Yesterday

Maximum temperature yesterday: 53 °F (at 1:00 pm)
Minimum temperature yesterday: 37 °F (at 7:00 am)
Average temperature yesterday: 45 °F

High & Low Weather Summary for the Past Weeks

 TemperatureHumidityPressure
High65 °F (Feb 24, 3:00 pm)100% (Feb 19, 11:00 pm)30.63 "Hg (Feb 19, 11:00 pm)
Low21 °F (Feb 14, 8:00 am)34% (Feb 24, 3:00 pm)29.75 "Hg (Feb 24, 3:00 pm)
Average40 °F78%30.16 "Hg
* Reported Feb 13 5:00 pm — Feb 28 5:00 pm, Constanța, Weather by CustomWeather, © 2017

Note: Actual official high and low records may vary slightly from our data, if they occured in-between our weather recording intervals... More about our weather records

Advertising

Constanța Weather History for the Previous 24 Hours

Scroll right to see more
 ConditionsComfort  
Time TempWeatherWind HumidityBarometerVisibility
5:00 pm
Tue, Feb 28
43 °FPartly sunny.2 mph94%29.98 "Hg6 mi
4:00 pm45 °FPartly sunny.2 mph89%29.99 "Hg6 mi
3:00 pm46 °FPartly sunny.2 mph89%30.00 "Hg6 mi
2:00 pm44 °FPartly sunny.2 mph99%30.01 "Hg6 mi
1:00 pm43 °FFog.3 mph100%30.05 "Hg2 mi
12:00 pm43 °FFog.2 mph100%30.07 "Hg2 mi
11:00 am42 °FFog.2 mph100%30.06 "Hg1 mi
10:00 am42 °FFog.2 mph100%30.07 "Hg0 mi
9:00 am42 °FFog.2 mph100%30.08 "Hg0 mi
8:00 am42 °FFog.1 mph100%30.07 "Hg1 mi
7:00 am41 °FFog.2 mph100%30.06 "Hg1 mi
6:00 am41 °FFog.2 mph100%30.05 "Hg0 mi
5:00 am41 °FFog.1 mph100%30.05 "Hg0 mi
4:00 am40 °FFog.1 mph100%30.06 "Hg0 mi
3:00 am42 °FFog.1 mph100%30.07 "Hg0 mi
2:00 am42 °FFog.2 mph100%30.08 "Hg0 mi
1:00 am42 °FFog.1 mph100%30.09 "Hg0 mi
12:00 am42 °FFog.1 mph100%30.09 "Hg0 mi
11:00 pm
Mon, Feb 27
42 °FFog.1 mph100%30.09 "Hg1 mi
10:00 pm44 °FPassing clouds.1 mph95%30.10 "Hg2 mi
9:00 pm46 °FPassing clouds.1 mph78%30.09 "Hg6 mi
8:00 pm46 °FPassing clouds.2 mph70%30.09 "Hg6 mi
7:00 pm47 °FPassing clouds.2 mph67%30.09 "Hg6 mi
6:00 pm47 °FPassing clouds.1 mph69%30.09 "Hg6 mi
Weather by CustomWeather, © 2017

See weather overviewHow to use our weather pages